Location: Gerlach
(40.6516°N, 119.3568°W)
Time: 14:25:36
(UTC-07:00)

A-11 Canister half - Pass Details

Date: 23 February 2024
Orbit: 1525 x 1683 km, 47.3° (Epoch: 21 April)

Event Time Altitude Azimuth Distance (km) Brightness Sun altitude
Exits shadow 05:41:53 14° 265° (W) 3,403 10.2 -11.9°
Maximum altitude 05:46:02 19° 234° (SW) 3,081 10.2 -11.1°
Drops below altitude 10° 05:52:00 10° 194° (SSW) 3,748 10.9 -10.0°
Sets 05:56:19 0° 178° (S) 4,756 11.7 -9.2°
